Regional Weather Roundup
Issued by NWS

Home | Current Version | Previous Version | Text Only | Print | Product List | Glossary On
Versions: 1 2 3 4 5 6 7 8 9 10 11 12 13 14 15 16 17 18 19 20 21 22 23 24 25 26 27 28 29 30 31 32 33 34 35 36 37 38 39 40 41 42 43 44 45 46 47 48 49 50
212
ASUS43 KMKX 132200
RWRWI

WISCONSIN REGIONAL WEATHER ROUNDUP
NATIONAL WEATHER SERVICE MILWAUKEE/SULLIVAN WI
400 PM CST SAT FEB 13 2016

NOTE: "FAIR" INDICATES FEW OR NO CLOUDS BELOW 12,000 FEET WITH NO
SIGNIFICANT WEATHER AND/OR OBSTRUCTIONS TO VISIBILITY.

WIZ001-002-006>008-014>016-023>028-132300-
NORTHWEST WISCONSIN

CITY           SKY/WX    TMP DP  RH WIND       PRES   REMARKS
SUPERIOR ARPT  SUNNY     11 -13  33 CALM      30.48F
ASHLAND        SUNNY     10 -12  36 SW5       30.46F WCI   2
HAYWARD        SUNNY      8 -13  37 S7        30.43F WCI  -3
SIREN          SUNNY      9 -13  36 SW5       30.46F WCI   1
CUMBERLAND     SUNNY      5  -9  51 S5        30.44F WCI  -4
RICE LAKE      SUNNY      7 -13  39 SW3       30.48F
CHETEK         SUNNY      7 -12  40 CALM      30.48F
LADYSMITH      SUNNY     10 -13  34 S5        30.46F WCI   2
EAU CLAIRE     NOT AVBL
MENOMONIE      SUNNY     14 -11  31 E5        30.50F WCI   6
NEW RICHMOND   SUNNY      7 -12  41 SE6       30.48F WCI  -3
OSCEOLA        SUNNY     10  -9  41 SE5       30.51F WCI   2
$$

WIZ003>005-009-010-017-018-132300-
NORTH CENTRAL WISCONSIN

CITY           SKY/WX    TMP DP  RH WIND       PRES   REMARKS
MANITOWISH WTR SUNNY      7  -8  48 W3        30.37F
ARBOR VITAE    SUNNY     11  -7  44 W6        30.37F WCI   1
WOODRUFF       SUNNY     11  -7  44 W6        30.37F WCI   1
RHINELANDER    SUNNY      8  -7  50 W6        30.38F WCI  -2
EAGLE RIVER    SUNNY      9  -7  49 NW8       30.36F WCI  -3
LAND O LAKES   SUNNY      9  -3  57 NW3       30.37S
PHILLIPS       SUNNY      9 -11  39 W3        30.39F
TOMAHAWK       SUNNY     10 -11  37 W3        30.40F
MEDFORD        SUNNY      7 -11  43 SW6       30.41F WCI  -3
MERRILL        SUNNY     12  -8  40 W5        30.42F WCI   4
$$

WIZ029-030-035-036-043>047-132300-
CENTRAL WISCONSIN

CITY           SKY/WX    TMP DP  RH WIND       PRES   REMARKS
WAUSAU         SUNNY      8  -8  48 W5        30.43F WCI   0
MOSINEE        SUNNY      7  -9  47 W9        30.45F WCI  -7
MARSHFIELD     SUNNY      7 -11  43 NW5       30.44F WCI  -2
STEVENS POINT  SUNNY      6 -10  47 W5        30.47F WCI  -3
WAUPACA        SUNNY     14  -8  36 W7        30.49F WCI   3
WAUTOMA        NOT AVBL
WISC RAPIDS    SUNNY     10 -11  38 N6        30.49F WCI   0
CAMP DOUGLAS   SUNNY     11 -10  38 W2        30.49F
$$

WIZ011>013-019>022-031-037>040-048>050-132300-
NORTHEAST WISCONSIN

CITY           SKY/WX    TMP DP  RH WIND       PRES   REMARKS
ANTIGO         SUNNY      9  -6  50 W10       30.39S WCI  -5
SHAWANO        SUNNY     16  -8  35 W8        30.47S WCI   5
OCONTO         SUNNY     13  -6  42 CALM      30.47F
STURGEON BAY   SUNNY     10  -8  44 W7        30.49S WCI   0
GREEN BAY      SUNNY     10  -5  50 W10       30.49F WCI  -4
MANITOWOC      NOT AVBL
APPLETON       MOSUNNY   10  -9  40 W8        30.46F WCI  -1
CLINTONVILLE   SUNNY     14  -8  37 W9        30.47F WCI   2
OSHKOSH        SUNNY     11  -7  44 W8        30.49F WCI  -1
$$

WIZ032>034-041-042-053>061-132300-
SOUTHWEST WISCONSIN

CITY           SKY/WX    TMP DP  RH WIND       PRES   REMARKS
LA CROSSE      SUNNY     14  -9  35 CALM      30.51F
SPARTA         SUNNY     11  -8  40 CALM      30.52S
VIROQUA        SUNNY     10 -12  36 CALM      30.46S
BOSCOBEL       SUNNY     14 -10  33 CALM      30.52F
PRAIRIE DU CHI SUNNY     12 -10  36 SW3       30.52F
PLATTEVILLE    CLOUDY     9  -6  49 CALM      30.50F
$$

WIZ056-057-062-063-064-067-068-132300-
SOUTH CENTRAL WISCONSIN

CITY           SKY/WX    TMP DP  RH WIND       PRES   REMARKS
REEDSBURG      SUNNY     10 -10  39 W6        30.50F WCI   1
BARABOO/DELLS  SUNNY     10 -11  36 W6        30.49F WCI   1
LONE ROCK      NOT AVBL
MINERAL POINT  SUNNY     12  -8  40 W3        30.48F
MADISON        PTSUNNY   12  -8  40 NW5       30.51F WCI   4
MIDDLETON      SUNNY     13  -9  36 W5        30.51S WCI   5
WATERTOWN      SUNNY     10  -6  48 W6        30.51S WCI   0
MONROE         SUNNY     14  -6  41 CALM      30.48F
JANESVILLE     SUNNY     14  -8  37 NW6       30.51F WCI   5
$$

WIZ051-052-058>065-066-070>072-132300-
SOUTHEAST WISCONSIN

CITY           SKY/WX    TMP DP  RH WIND       PRES   REMARKS
MILWAUKEE      MOSUNNY   12  -8  40 VRB7      30.52S WCI   1
WAUKESHA       SUNNY      9  -8  47 NW12      30.51S WCI  -6
MILWAUKEE/TIMM SUNNY     10  -9  40 W8        30.52S WCI  -1
RACINE         SUNNY     13  -8  39 NW9       30.53S WCI   1
BURLINGTON     SUNNY     12  -8  39 NW10      30.51F WCI  -2
KENOSHA        SUNNY     14  -5  42 NW9       30.51S WCI   2
FOND DU LAC    SUNNY     10  -7  46 W7        30.50F WCI  -1
SHEBOYGAN      SUNNY      9  -7  48 NW9       30.50F WCI  -4
WEST BEND      SUNNY     10  -8  44 CALM      30.50S
JUNEAU         SUNNY      8  -8  47 SW7       30.51S WCI  -3
$$

LSZ147-162-132300-
LAKE SUPERIOR

STATION/POSITION TIME  TEMP    WIND        PRES    WAVE
                       AIR SEA DIR/SP/G            HT/PER
                 (UTC) (F)     (DEG/KT/KT) (MB)    (FT/S)
DEVILS ISLAND    2100    6     250/  6/  7 1034.3F
SAXON HARBOR     2100   13                 1032.2
$$

LMZ867-665-643>646-132300-
LAKE MICHIGAN

STATION/POSITION TIME  TEMP    WIND        PRES    WAVE
                       AIR SEA DIR/SP/G            HT/PER
                 (UTC) (F)     (DEG/KT/KT) (MB)    (FT/S)
CHAMBERS ISLAND  2100   17     300/  3/  7 1031.5S
SISTER BAY       2119   24     300/  6/  7   N/A
ALGOMA LAKESHORE 2126           CALM  /  5   N/A
KEWAUNEE LAKESHO 2100   10     280/  6/ 10 1031.6R
SHEBOYGAN LAKESH 2100    9     270/ 11/ 13 1035.2R
PORT WASHINGTON  2140   11     310/ 10/ 16 1034.2F
MILWAUKEE LAKESH 2110   12     300/  5/  7   N/A
KENOSHA   LAKESH 2100   12     340/ 11/ 13 1033.5F
$$

TC  - TEMPERATURE IN CELSIUS
VSB - VISIBILITY IN STATUTE MILES
WCI - WIND CHILL INDEX
HX  - HEAT INDEX





USA.gov is the U.S. government's official web portal to all federal, state and local government web resources and services.